Powrót do katalogu

COSMOS 1943

AktywnyNawigacjaLEO
NORAD 19119·PAYLOAD·🇷🇺 Russia

Wystrzelony May 15, 1988 z Baikonur Cosmodrome

Loading…

Następne Przeloty (najbliższe 24 godziny)

TLE

ŚwieżeSource: Space-Track

Epoka: Sep 14, 2026, 15:32 UTC

1 19119U 88039A   26257.64735142  .00000274  00000-0  16369-3 0  9994
2 19119  71.0027 208.6673 0013049 312.7490 219.8406 14.15776035979559

Śledź COSMOS 1943 w czasie rzeczywistym z AllMySat

Download on the App Store